Location: Agua Amarilla
(10.0342°N, 66.8490°W)
Time: 11:21:24
(UTC+00:00)

Cosmos 2242 Rocket - Pass Details

Date: 26 June 2022
Orbit: 619 x 650 km, 82.5° (Epoch: 18 August)

Event Time Altitude Azimuth Distance (km) Brightness Sun altitude
Rises 23:05:52 0° 183° (S) 2,929 6.8 -4.0°
Reaches altitude 10° 23:08:07 10° 183° (S) 2,016 6.0 -4.5°
Maximum altitude 23:12:35 88° 95° (E) 634 3.6 -5.5°
Drops below altitude 10° 23:17:01 10° 5° (N) 1,995 6.5 -6.5°
Sets 23:19:14 0° 5° (N) 2,897 7.3 -7.0°
